Time,TemperatureF,DewpointF,PressureIn,WindDirection,WindDirectionDegrees,WindSpeedMPH,WindSpeedGustMPH,Humidity,HourlyPrecipIn,Conditions,Clouds,dailyrainin,SoftwareType,DateUTC
2013-03-08 00:00:00,58.1,54.0,30.23,NNW,337,1.4,3.0,85,0.00,,,0.00,Rainwise IP-100,2013-03-08 05:00:00,
2013-03-08 00:05:00,58.1,54.0,30.23,NW,315,2.6,3.3,85,0.00,,,0.00,Rainwise IP-100,2013-03-08 05:05:00,
2013-03-08 00:10:00,58.1,54.0,30.23,NW,315,1.4,3.5,86,0.00,,,0.00,Rainwise IP-100,2013-03-08 05:10:00,
2013-03-08 00:15:00,58.0,54.0,30.22,NW,315,1.2,2.3,86,0.00,,,0.00,Rainwise IP-100,2013-03-08 05:15:00,
2013-03-08 00:20:00,57.8,54.5,30.21,NW,315,1.4,2.3,87,0.00,,,0.00,Rainwise IP-100,2013-03-08 05:20:00,
2013-03-08 00:25:00,57.7,54.0,30.22,NW,315,1.4,2.1,87,0.00,,,0.00,Rainwise IP-100,2013-03-08 05:25:00,
2013-03-08 00:31:00,57.5,54.0,30.22,NNW,337,2.6,2.6,87,0.00,,,0.00,Rainwise IP-100,2013-03-08 05:31:00,
2013-03-08 00:32:00,57.5,54.0,30.22,NNW,337,1.2,2.8,87,0.00,,,0.00,Rainwise IP-100,2013-03-08 05:32:00,
2013-03-08 00:37:00,57.4,54.0,30.21,NNW,337,2.3,3.0,87,0.00,,,0.00,Rainwise IP-100,2013-03-08 05:37:00,
2013-03-08 00:42:00,57.4,54.0,30.22,NNW,337,1.6,4.7,88,0.00,,,0.00,Rainwise IP-100,2013-03-08 05:42:00,
2013-03-08 00:47:00,57.4,54.0,30.21,NNW,337,2.3,3.0,88,0.00,,,0.00,Rainwise IP-100,2013-03-08 05:47:00,
2013-03-08 00:53:00,57.3,54.0,30.22,NNW,337,1.6,2.8,88,0.00,,,0.00,Rainwise IP-100,2013-03-08 05:53:00,
2013-03-08 00:58:00,57.2,53.5,30.22,NNW,337,2.1,2.8,88,0.00,,,0.00,Rainwise IP-100,2013-03-08 05:58:00,
2013-03-08 01:03:00,57.2,53.5,30.21,NNW,337,1.6,3.3,88,0.00,,,0.00,Rainwise IP-100,2013-03-08 06:03:00,
2013-03-08 01:08:00,57.1,54.0,30.21,NNW,337,1.6,3.0,89,0.00,,,0.00,Rainwise IP-100,2013-03-08 06:08:00,
2013-03-08 01:13:00,57.1,54.0,30.21,NNW,337,2.6,3.7,89,0.00,,,0.00,Rainwise IP-100,2013-03-08 06:13:00,
2013-03-08 01:18:00,57.1,54.0,30.21,NNW,337,2.8,3.5,89,0.00,,,0.00,Rainwise IP-100,2013-03-08 06:18:00,
2013-03-08 01:23:00,57.2,54.0,30.21,NNW,337,1.9,3.5,89,0.00,,,0.00,Rainwise IP-100,2013-03-08 06:23:00,
2013-03-08 01:28:00,57.1,54.0,30.21,NNW,337,1.6,3.3,89,0.00,,,0.00,Rainwise IP-100,2013-03-08 06:28:00,
2013-03-08 01:34:00,57.1,54.0,30.21,NNW,337,2.1,2.6,89,0.00,,,0.00,Rainwise IP-100,2013-03-08 06:34:00,
2013-03-08 01:39:00,57.1,54.0,30.21,NNW,337,1.4,2.8,89,0.00,,,0.00,Rainwise IP-100,2013-03-08 06:39:00,
2013-03-08 01:44:00,57.0,54.0,30.21,NNW,337,0.0,1.6,89,0.00,,,0.00,Rainwise IP-100,2013-03-08 06:44:00,
2013-03-08 01:49:00,57.0,54.0,30.21,NNW,337,0.0,1.9,89,0.00,,,0.00,Rainwise IP-100,2013-03-08 06:49:00,
2013-03-08 01:54:00,57.0,54.0,30.21,NNW,337,0.0,1.6,89,0.00,,,0.00,Rainwise IP-100,2013-03-08 06:54:00,
2013-03-08 01:59:00,56.9,54.0,30.20,NNW,337,1.2,1.4,89,0.00,,,0.00,Rainwise IP-100,2013-03-08 06:59:00,
2013-03-08 02:04:00,56.8,54.0,30.21,NNW,337,1.6,2.3,89,0.00,,,0.00,Rainwise IP-100,2013-03-08 07:04:00,
2013-03-08 02:10:00,56.8,54.0,30.20,NNW,337,2.1,2.6,89,0.00,,,0.00,Rainwise IP-100,2013-03-08 07:10:00,
2013-03-08 02:15:00,56.8,54.0,30.20,NNW,337,1.9,3.0,90,0.00,,,0.00,Rainwise IP-100,2013-03-08 07:15:00,
2013-03-08 02:20:00,56.6,53.5,30.20,NNW,337,1.2,2.3,90,0.00,,,0.00,Rainwise IP-100,2013-03-08 07:20:00,
2013-03-08 02:25:00,56.4,53.5,30.20,WNW,292,3.7,4.2,90,0.00,,,0.00,Rainwise IP-100,2013-03-08 07:25:00,
2013-03-08 02:30:00,56.3,53.5,30.20,WNW,292,5.1,6.8,90,0.00,,,0.00,Rainwise IP-100,2013-03-08 07:30:00,
2013-03-08 02:35:00,56.3,53.5,30.19,WNW,292,1.4,5.6,90,0.00,,,0.00,Rainwise IP-100,2013-03-08 07:35:00,
2013-03-08 02:40:00,56.2,53.5,30.19,WNW,292,4.2,4.4,90,0.00,,,0.00,Rainwise IP-100,2013-03-08 07:40:00,
2013-03-08 02:45:00,56.1,53.5,30.19,WNW,292,2.3,5.6,90,0.00,,,0.00,Rainwise IP-100,2013-03-08 07:45:00,
2013-03-08 02:51:00,56.0,53.5,30.19,WNW,292,1.6,5.4,90,0.00,,,0.00,Rainwise IP-100,2013-03-08 07:51:00,
2013-03-08 02:56:00,55.9,53.5,30.19,WNW,292,3.5,5.1,90,0.00,,,0.00,Rainwise IP-100,2013-03-08 07:56:00,
2013-03-08 03:01:00,55.8,53.5,30.19,WNW,292,2.3,6.5,90,0.00,,,0.00,Rainwise IP-100,2013-03-08 08:01:00,
2013-03-08 03:06:00,55.7,53.5,30.19,WNW,292,3.3,4.9,91,0.00,,,0.00,Rainwise IP-100,2013-03-08 08:06:00,
2013-03-08 03:11:00,55.5,53.5,30.19,WNW,292,2.1,5.6,91,0.00,,,0.00,Rainwise IP-100,2013-03-08 08:11:00,
2013-03-08 03:16:00,55.4,53.0,30.19,WNW,292,2.6,4.4,91,0.00,,,0.00,Rainwise IP-100,2013-03-08 08:16:00,
2013-03-08 03:21:00,55.4,53.0,30.19,WNW,292,1.9,4.7,91,0.00,,,0.00,Rainwise IP-100,2013-03-08 08:21:00,
2013-03-08 03:26:00,55.4,53.0,30.20,WNW,292,1.2,5.6,91,0.00,,,0.00,Rainwise IP-100,2013-03-08 08:26:00,
2013-03-08 03:32:00,55.3,53.0,30.19,WNW,292,1.9,5.1,92,0.00,,,0.00,Rainwise IP-100,2013-03-08 08:32:00,
2013-03-08 03:37:00,55.3,53.0,30.19,WNW,292,2.6,5.4,92,0.00,,,0.00,Rainwise IP-100,2013-03-08 08:37:00,
2013-03-08 03:42:00,55.3,53.0,30.19,NW,315,1.6,6.3,92,0.00,,,0.00,Rainwise IP-100,2013-03-08 08:42:00,
2013-03-08 03:47:00,55.2,53.0,30.19,NNW,337,2.3,6.8,92,0.00,,,0.00,Rainwise IP-100,2013-03-08 08:47:00,
2013-03-08 03:52:00,55.2,53.0,30.19,NNW,337,2.6,5.8,92,0.00,,,0.00,Rainwise IP-100,2013-03-08 08:52:00,
2013-03-08 03:57:00,55.3,53.0,30.19,NNW,337,3.0,4.7,91,0.00,,,0.00,Rainwise IP-100,2013-03-08 08:57:00,
2013-03-08 04:02:00,55.2,53.0,30.19,NNW,337,1.4,5.1,91,0.00,,,0.00,Rainwise IP-100,2013-03-08 09:02:00,
2013-03-08 04:08:00,55.2,53.0,30.19,NW,315,2.3,6.5,91,0.00,,,0.00,Rainwise IP-100,2013-03-08 09:08:00,
2013-03-08 04:13:00,55.3,53.0,30.19,NW,315,2.1,4.0,91,0.00,,,0.00,Rainwise IP-100,2013-03-08 09:13:00,
2013-03-08 04:18:00,55.1,53.0,30.19,NNW,337,3.5,5.8,90,0.00,,,0.00,Rainwise IP-100,2013-03-08 09:18:00,
2013-03-08 04:23:00,55.0,53.0,30.19,NNW,337,2.1,4.7,90,0.00,,,0.00,Rainwise IP-100,2013-03-08 09:23:00,
2013-03-08 04:28:00,55.0,53.0,30.19,NNW,337,2.3,4.2,90,0.00,,,0.00,Rainwise IP-100,2013-03-08 09:28:00,
2013-03-08 04:33:00,55.0,53.0,30.18,NNW,337,2.6,4.2,90,0.00,,,0.00,Rainwise IP-100,2013-03-08 09:33:00,
2013-03-08 04:38:00,54.9,53.0,30.19,NNW,337,1.9,4.2,90,0.00,,,0.00,Rainwise IP-100,2013-03-08 09:38:00,
2013-03-08 04:43:00,54.8,53.0,30.19,NNW,337,1.6,3.7,90,0.00,,,0.00,Rainwise IP-100,2013-03-08 09:43:00,
2013-03-08 04:49:00,54.8,53.0,30.19,NW,315,2.1,3.7,90,0.00,,,0.00,Rainwise IP-100,2013-03-08 09:49:00,
2013-03-08 04:54:00,54.7,52.0,30.19,NNW,337,2.3,4.4,90,0.00,,,0.00,Rainwise IP-100,2013-03-08 09:54:00,
2013-03-08 04:59:00,54.6,52.0,30.19,NNW,337,4.2,5.1,90,0.00,,,0.00,Rainwise IP-100,2013-03-08 09:59:00,
2013-03-08 05:04:00,54.6,51.0,30.19,NNW,337,2.3,4.7,89,0.00,,,0.00,Rainwise IP-100,2013-03-08 10:04:00,
2013-03-08 05:09:00,54.7,51.0,30.20,NNW,337,2.8,4.7,89,0.00,,,0.00,Rainwise IP-100,2013-03-08 10:09:00,
2013-03-08 05:14:00,54.7,51.0,30.20,NW,315,2.1,5.4,89,0.00,,,0.00,Rainwise IP-100,2013-03-08 10:14:00,
2013-03-08 05:19:00,54.8,52.0,30.20,NW,315,3.3,5.4,88,0.00,,,0.00,Rainwise IP-100,2013-03-08 10:19:00,
2013-03-08 05:25:00,54.9,52.0,30.20,NNW,337,2.1,4.4,88,0.00,,,0.00,Rainwise IP-100,2013-03-08 10:25:00,
2013-03-08 05:30:00,55.0,51.0,30.20,NNW,337,4.0,4.7,87,0.00,,,0.00,Rainwise IP-100,2013-03-08 10:30:00,
2013-03-08 05:35:00,55.0,51.0,30.20,NNW,337,3.0,4.0,87,0.00,,,0.00,Rainwise IP-100,2013-03-08 10:35:00,
2013-03-08 05:40:00,54.9,51.0,30.20,NNW,337,2.6,4.4,86,0.00,,,0.00,Rainwise IP-100,2013-03-08 10:40:00,
2013-03-08 05:45:00,54.9,51.0,30.20,NNW,337,2.8,5.1,86,0.00,,,0.00,Rainwise IP-100,2013-03-08 10:45:00,
2013-03-08 05:50:00,54.9,50.5,30.20,NNW,337,3.3,4.4,85,0.00,,,0.00,Rainwise IP-100,2013-03-08 10:50:00,
2013-03-08 05:55:00,54.9,50.5,30.21,NNW,337,3.0,5.6,84,0.00,,,0.00,Rainwise IP-100,2013-03-08 10:55:00,
2013-03-08 06:00:00,55.0,50.5,30.20,NNW,337,3.0,5.4,84,0.00,,,0.00,Rainwise IP-100,2013-03-08 11:00:00,
2013-03-08 06:06:00,55.0,50.5,30.21,NW,315,2.8,5.1,83,0.00,,,0.00,Rainwise IP-100,2013-03-08 11:06:00,
2013-03-08 06:11:00,55.2,50.0,30.21,NNW,337,3.5,4.2,82,0.00,,,0.00,Rainwise IP-100,2013-03-08 11:11:00,
2013-03-08 06:16:00,55.3,50.0,30.21,NNW,337,2.3,3.7,81,0.00,,,0.00,Rainwise IP-100,2013-03-08 11:16:00,
2013-03-08 06:21:00,55.3,49.0,30.21,NNW,337,3.7,4.2,80,0.00,,,0.00,Rainwise IP-100,2013-03-08 11:21:00,
2013-03-08 06:26:00,55.2,49.0,30.20,NNW,337,3.5,4.9,80,0.00,,,0.00,Rainwise IP-100,2013-03-08 11:26:00,
2013-03-08 06:31:00,55.2,49.0,30.21,NNW,337,3.7,5.8,79,0.00,,,0.00,Rainwise IP-100,2013-03-08 11:31:00,
2013-03-08 06:36:00,55.2,48.0,30.21,NNW,337,3.5,5.4,78,0.00,,,0.00,Rainwise IP-100,2013-03-08 11:36:00,
2013-03-08 06:42:00,55.2,48.0,30.21,NNW,337,3.3,5.4,78,0.00,,,0.00,Rainwise IP-100,2013-03-08 11:42:00,
2013-03-08 06:47:00,55.3,48.0,30.21,NNW,337,2.8,6.1,77,0.00,,,0.00,Rainwise IP-100,2013-03-08 11:47:00,
2013-03-08 06:52:00,55.5,48.0,30.22,NNW,337,2.3,5.4,76,0.00,,,0.00,Rainwise IP-100,2013-03-08 11:52:00,
2013-03-08 06:57:00,55.6,48.0,30.21,NNW,337,2.3,4.0,76,0.00,,,0.00,Rainwise IP-100,2013-03-08 11:57:00,
2013-03-08 07:02:00,55.8,48.0,30.22,NNW,337,2.6,4.0,76,0.00,,,0.00,Rainwise IP-100,2013-03-08 12:02:00,
2013-03-08 07:07:00,55.9,48.0,30.22,NNW,337,2.3,4.4,76,0.00,,,0.00,Rainwise IP-100,2013-03-08 12:07:00,
2013-03-08 07:12:00,56.2,48.0,30.22,NNW,337,2.6,4.0,75,0.00,,,0.00,Rainwise IP-100,2013-03-08 12:12:00,
2013-03-08 07:17:00,56.5,48.0,30.23,NNW,337,3.0,4.9,74,0.00,,,0.00,Rainwise IP-100,2013-03-08 12:17:00,
2013-03-08 07:23:00,56.9,48.0,30.23,NNW,337,5.1,6.5,73,0.00,,,0.00,Rainwise IP-100,2013-03-08 12:23:00,
2013-03-08 07:28:00,57.4,49.0,30.23,NNW,337,1.6,4.2,72,0.00,,,0.00,Rainwise IP-100,2013-03-08 12:28:00,
2013-03-08 07:33:00,57.9,49.0,30.23,NNW,337,3.7,5.6,71,0.00,,,0.00,Rainwise IP-100,2013-03-08 12:33:00,
2013-03-08 07:38:00,58.5,49.0,30.23,NNW,337,3.0,7.5,70,0.00,,,0.00,Rainwise IP-100,2013-03-08 12:38:00,
2013-03-08 07:43:00,59.0,49.0,30.23,NNW,337,4.0,5.6,69,0.00,,,0.00,Rainwise IP-100,2013-03-08 12:43:00,
2013-03-08 07:48:00,59.4,49.0,30.23,NNW,337,3.5,6.5,68,0.00,,,0.00,Rainwise IP-100,2013-03-08 12:48:00,
2013-03-08 07:53:00,59.9,49.0,30.24,NNW,337,6.5,7.5,67,0.00,,,0.00,Rainwise IP-100,2013-03-08 12:53:00,
2013-03-08 07:59:00,60.5,49.0,30.23,NNW,337,5.1,7.2,66,0.00,,,0.00,Rainwise IP-100,2013-03-08 12:59:00,
2013-03-08 08:04:00,60.9,50.0,30.24,NNW,337,2.8,6.1,66,0.00,,,0.00,Rainwise IP-100,2013-03-08 13:04:00,
2013-03-08 08:09:00,61.4,50.0,30.24,NNW,337,2.8,7.2,65,0.00,,,0.00,Rainwise IP-100,2013-03-08 13:09:00,
2013-03-08 08:14:00,62.1,50.0,30.24,NNW,337,1.6,7.0,64,0.00,,,0.00,Rainwise IP-100,2013-03-08 13:14:00,
2013-03-08 08:19:00,62.5,50.0,30.24,NNW,337,4.7,9.6,63,0.00,,,0.00,Rainwise IP-100,2013-03-08 13:19:00,
2013-03-08 08:24:00,62.8,50.0,30.24,NW,315,4.4,6.8,62,0.00,,,0.00,Rainwise IP-100,2013-03-08 13:24:00,
2013-03-08 08:29:00,63.8,50.5,30.24,NNE,22,4.7,7.2,61,0.00,,,0.00,Rainwise IP-100,2013-03-08 13:29:00,
2013-03-08 08:34:00,64.4,50.5,30.24,NNW,337,5.4,7.7,60,0.00,,,0.00,Rainwise IP-100,2013-03-08 13:34:00,
2013-03-08 08:40:00,64.3,49.0,30.25,NNW,337,10.0,11.7,58,0.00,,,0.00,Rainwise IP-100,2013-03-08 13:40:00,
2013-03-08 08:45:00,64.5,49.0,30.24,NNE,22,7.0,9.3,57,0.00,,,0.00,Rainwise IP-100,2013-03-08 13:45:00,
2013-03-08 08:50:00,65.2,49.0,30.24,NNW,337,9.3,9.8,56,0.00,,,0.00,Rainwise IP-100,2013-03-08 13:50:00,
2013-03-08 08:55:00,65.1,48.0,30.24,North,360,5.1,10.5,55,0.00,,,0.00,Rainwise IP-100,2013-03-08 13:55:00,
2013-03-08 09:00:00,65.4,47.5,30.24,NNE,22,3.3,9.6,53,0.00,,,0.00,Rainwise IP-100,2013-03-08 14:00:00,
2013-03-08 09:05:00,66.1,47.5,30.25,NNW,337,4.0,9.6,52,0.00,,,0.00,Rainwise IP-100,2013-03-08 14:05:00,
2013-03-08 09:10:00,66.2,47.5,30.25,NNE,22,4.0,8.4,51,0.00,,,0.00,Rainwise IP-100,2013-03-08 14:10:00,
2013-03-08 09:16:00,66.3,47.5,30.25,NNW,337,8.9,11.9,51,0.00,,,0.00,Rainwise IP-100,2013-03-08 14:16:00,
2013-03-08 09:21:00,66.8,47.5,30.25,NNW,337,4.2,12.1,50,0.00,,,0.00,Rainwise IP-100,2013-03-08 14:21:00,
2013-03-08 09:26:00,66.9,47.5,30.25,NW,315,4.7,9.1,49,0.00,,,0.00,Rainwise IP-100,2013-03-08 14:26:00,
2013-03-08 09:31:00,67.0,47.0,30.25,NNW,337,11.2,11.2,48,0.00,,,0.00,Rainwise IP-100,2013-03-08 14:31:00,
2013-03-08 09:36:00,67.5,47.0,30.25,NNE,22,4.4,12.6,47,0.00,,,0.00,Rainwise IP-100,2013-03-08 14:36:00,
2013-03-08 09:41:00,68.3,47.0,30.25,NNW,337,2.8,8.4,46,0.00,,,0.00,Rainwise IP-100,2013-03-08 14:41:00,
2013-03-08 09:46:00,68.4,47.0,30.25,NNW,337,5.4,10.0,45,0.00,,,0.00,Rainwise IP-100,2013-03-08 14:46:00,
2013-03-08 09:51:00,68.6,47.0,30.25,NNE,22,5.8,9.8,45,0.00,,,0.00,Rainwise IP-100,2013-03-08 14:51:00,
2013-03-08 09:57:00,69.0,46.0,30.25,NNE,22,7.2,11.9,44,0.00,,,0.00,Rainwise IP-100,2013-03-08 14:57:00,
2013-03-08 10:02:00,69.0,46.0,30.25,WNW,292,5.4,10.3,43,0.00,,,0.00,Rainwise IP-100,2013-03-08 15:02:00,
2013-03-08 10:07:00,69.0,45.0,30.25,NNW,337,10.3,13.1,42,0.00,,,0.00,Rainwise IP-100,2013-03-08 15:07:00,
2013-03-08 10:12:00,69.0,45.0,30.25,NNE,22,3.7,12.6,42,0.00,,,0.00,Rainwise IP-100,2013-03-08 15:12:00,
2013-03-08 10:17:00,69.2,45.0,30.25,North,360,1.4,10.5,42,0.00,,,0.00,Rainwise IP-100,2013-03-08 15:17:00,
2013-03-08 10:22:00,69.6,46.0,30.25,NNW,337,4.7,10.7,42,0.00,,,0.00,Rainwise IP-100,2013-03-08 15:22:00,
2013-03-08 10:27:00,70.0,46.0,30.26,NNW,337,6.5,11.7,42,0.00,,,0.00,Rainwise IP-100,2013-03-08 15:27:00,
2013-03-08 10:33:00,69.8,46.0,30.25,NNE,22,4.7,12.4,43,0.00,,,0.00,Rainwise IP-100,2013-03-08 15:33:00,
2013-03-08 10:38:00,69.6,47.0,30.25,NNE,22,6.8,12.4,44,0.00,,,0.00,Rainwise IP-100,2013-03-08 15:38:00,
2013-03-08 10:43:00,69.3,47.0,30.25,North,360,4.2,14.9,45,0.00,,,0.00,Rainwise IP-100,2013-03-08 15:43:00,
2013-03-08 10:48:00,69.0,47.5,30.25,ENE,67,7.9,11.0,46,0.00,,,0.00,Rainwise IP-100,2013-03-08 15:48:00,
2013-03-08 10:53:00,69.4,48.0,30.25,NE,45,4.7,9.1,47,0.00,,,0.00,Rainwise IP-100,2013-03-08 15:53:00,
2013-03-08 10:58:00,69.9,49.0,30.25,NNE,22,6.5,12.8,47,0.00,,,0.00,Rainwise IP-100,2013-03-08 15:58:00,
2013-03-08 11:03:00,69.7,48.0,30.25,NNW,337,3.7,11.4,47,0.00,,,0.00,Rainwise IP-100,2013-03-08 16:03:00,
2013-03-08 11:08:00,69.9,49.0,30.24,NNE,22,5.8,10.0,47,0.00,,,0.00,Rainwise IP-100,2013-03-08 16:08:00,
2013-03-08 11:14:00,69.9,50.0,30.24,ENE,67,7.5,14.5,48,0.00,,,0.00,Rainwise IP-100,2013-03-08 16:14:00,
2013-03-08 11:19:00,69.4,49.0,30.24,ENE,67,4.4,14.0,48,0.00,,,0.00,Rainwise IP-100,2013-03-08 16:19:00,
2013-03-08 11:24:00,69.0,49.0,30.24,NE,45,10.7,13.3,49,0.00,,,0.00,Rainwise IP-100,2013-03-08 16:24:00,
2013-03-08 11:29:00,68.9,50.0,30.24,NE,45,9.6,12.4,50,0.00,,,0.00,Rainwise IP-100,2013-03-08 16:29:00,
2013-03-08 11:34:00,69.4,50.0,30.23,NE,45,7.7,15.6,50,0.00,,,0.00,Rainwise IP-100,2013-03-08 16:34:00,
2013-03-08 11:39:00,69.5,50.0,30.24,NNE,22,13.5,16.6,49,0.00,,,0.00,Rainwise IP-100,2013-03-08 16:39:00,
2013-03-08 11:44:00,69.3,50.0,30.24,NNW,337,3.3,14.2,50,0.00,,,0.00,Rainwise IP-100,2013-03-08 16:44:00,
2013-03-08 11:50:00,69.3,50.5,30.23,NNE,22,11.9,11.9,51,0.00,,,0.00,Rainwise IP-100,2013-03-08 16:50:00,
2013-03-08 11:55:00,69.5,50.5,30.23,NNE,22,6.5,13.8,51,0.00,,,0.00,Rainwise IP-100,2013-03-08 16:55:00,
2013-03-08 12:00:00,69.4,50.5,30.23,NNE,22,7.2,14.0,52,0.00,,,0.00,Rainwise IP-100,2013-03-08 17:00:00,
2013-03-08 12:05:00,69.1,50.5,30.22,ENE,67,9.1,14.7,52,0.00,,,0.00,Rainwise IP-100,2013-03-08 17:05:00,
2013-03-08 12:10:00,69.0,50.0,30.22,ENE,67,9.6,13.3,51,0.00,,,0.00,Rainwise IP-100,2013-03-08 17:10:00,
2013-03-08 12:15:00,69.1,50.0,30.23,NNW,337,6.3,14.7,51,0.00,,,0.00,Rainwise IP-100,2013-03-08 17:15:00,
2013-03-08 12:20:00,69.5,51.0,30.22,NE,45,10.7,13.1,52,0.00,,,0.00,Rainwise IP-100,2013-03-08 17:20:00,
2013-03-08 12:25:00,69.6,50.5,30.22,NE,45,9.3,14.7,51,0.00,,,0.00,Rainwise IP-100,2013-03-08 17:25:00,
2013-03-08 12:31:00,69.3,50.0,30.21,NNE,22,7.2,17.3,50,0.00,,,0.00,Rainwise IP-100,2013-03-08 17:31:00,
2013-03-08 12:36:00,69.2,50.0,30.21,ENE,67,12.1,16.3,50,0.00,,,0.00,Rainwise IP-100,2013-03-08 17:36:00,
2013-03-08 12:41:00,69.1,50.0,30.21,NNE,22,11.0,14.9,50,0.00,,,0.00,Rainwise IP-100,2013-03-08 17:41:00,
2013-03-08 12:46:00,69.2,50.5,30.21,NNE,22,10.5,14.9,51,0.00,,,0.00,Rainwise IP-100,2013-03-08 17:46:00,
2013-03-08 12:51:00,69.1,50.0,30.21,ENE,67,12.4,12.4,51,0.00,,,0.00,Rainwise IP-100,2013-03-08 17:51:00,
2013-03-08 12:56:00,69.1,50.5,30.21,ENE,67,9.3,13.8,52,0.00,,,0.00,Rainwise IP-100,2013-03-08 17:56:00,
2013-03-08 13:01:00,69.1,50.5,30.21,ENE,67,9.1,15.4,52,0.00,,,0.00,Rainwise IP-100,2013-03-08 18:01:00,
2013-03-08 13:07:00,69.1,50.5,30.20,ENE,67,8.6,14.7,52,0.00,,,0.00,Rainwise IP-100,2013-03-08 18:07:00,
2013-03-08 13:12:00,69.3,50.5,30.20,ENE,67,8.9,14.7,52,0.00,,,0.00,Rainwise IP-100,2013-03-08 18:12:00,
2013-03-08 13:17:00,69.1,50.0,30.19,NNE,22,7.9,14.2,51,0.00,,,0.00,Rainwise IP-100,2013-03-08 18:17:00,
2013-03-08 13:22:00,69.1,50.0,30.19,NNE,22,10.5,13.1,51,0.00,,,0.00,Rainwise IP-100,2013-03-08 18:22:00,
2013-03-08 13:27:00,69.2,50.5,30.19,ENE,67,2.8,12.8,51,0.00,,,0.00,Rainwise IP-100,2013-03-08 18:27:00,
2013-03-08 13:32:00,69.4,50.5,30.19,NE,45,7.7,12.8,51,0.00,,,0.00,Rainwise IP-100,2013-03-08 18:32:00,
2013-03-08 13:37:00,69.4,50.5,30.18,ENE,67,8.6,12.8,52,0.00,,,0.00,Rainwise IP-100,2013-03-08 18:37:00,
2013-03-08 13:42:00,69.1,50.0,30.19,NNE,22,5.1,13.3,51,0.00,,,0.00,Rainwise IP-100,2013-03-08 18:42:00,
2013-03-08 13:47:00,69.3,50.0,30.18,NE,45,11.2,12.6,50,0.00,,,0.00,Rainwise IP-100,2013-03-08 18:47:00,
2013-03-08 13:53:00,69.3,50.0,30.18,ENE,67,6.3,13.5,50,0.00,,,0.00,Rainwise IP-100,2013-03-08 18:53:00,
2013-03-08 13:58:00,69.4,50.0,30.18,ENE,67,10.7,13.1,50,0.00,,,0.00,Rainwise IP-100,2013-03-08 18:58:00,
2013-03-08 14:03:00,69.6,50.5,30.18,ENE,67,10.3,15.2,50,0.00,,,0.00,Rainwise IP-100,2013-03-08 19:03:00,
2013-03-08 14:08:00,69.5,50.5,30.18,ENE,67,4.0,12.6,51,0.00,,,0.00,Rainwise IP-100,2013-03-08 19:08:00,
2013-03-08 14:13:00,69.6,50.5,30.19,NE,45,9.8,11.9,50,0.00,,,0.00,Rainwise IP-100,2013-03-08 19:13:00,
2013-03-08 14:18:00,69.9,51.0,30.18,NNE,22,8.9,12.1,51,0.00,,,0.00,Rainwise IP-100,2013-03-08 19:18:00,
2013-03-08 14:23:00,70.1,50.5,30.18,ENE,67,11.4,13.8,50,0.00,,,0.00,Rainwise IP-100,2013-03-08 19:23:00,
2013-03-08 14:28:00,69.8,50.0,30.18,ENE,67,11.7,14.2,49,0.00,,,0.00,Rainwise IP-100,2013-03-08 19:28:00,
2013-03-08 14:34:00,69.8,50.5,30.18,ENE,67,6.3,13.1,50,0.00,,,0.00,Rainwise IP-100,2013-03-08 19:34:00,
2013-03-08 14:39:00,70.1,50.5,30.17,NNE,22,9.1,14.7,50,0.00,,,0.00,Rainwise IP-100,2013-03-08 19:39:00,
2013-03-08 14:44:00,70.4,51.0,30.17,ENE,67,9.6,13.8,50,0.00,,,0.00,Rainwise IP-100,2013-03-08 19:44:00,
2013-03-08 14:49:00,70.3,50.5,30.17,NNE,22,9.8,12.6,49,0.00,,,0.00,Rainwise IP-100,2013-03-08 19:49:00,
2013-03-08 14:54:00,70.3,50.5,30.17,NNE,22,6.3,13.3,49,0.00,,,0.00,Rainwise IP-100,2013-03-08 19:54:00,
2013-03-08 14:59:00,70.3,50.5,30.17,ENE,67,8.2,14.2,49,0.00,,,0.00,Rainwise IP-100,2013-03-08 19:59:00,
2013-03-08 15:04:00,70.2,50.0,30.16,NE,45,7.9,15.4,49,0.00,,,0.00,Rainwise IP-100,2013-03-08 20:04:00,
2013-03-08 15:10:00,70.3,50.5,30.16,ENE,67,11.2,12.1,49,0.00,,,0.00,Rainwise IP-100,2013-03-08 20:10:00,
2013-03-08 15:15:00,70.2,50.0,30.16,NE,45,6.5,12.1,49,0.00,,,0.00,Rainwise IP-100,2013-03-08 20:15:00,
2013-03-08 15:20:00,70.3,50.5,30.16,ENE,67,9.6,12.6,49,0.00,,,0.00,Rainwise IP-100,2013-03-08 20:20:00,
2013-03-08 15:25:00,70.4,50.5,30.16,NE,45,11.7,13.5,49,0.00,,,0.00,Rainwise IP-100,2013-03-08 20:25:00,
2013-03-08 15:30:00,70.6,50.5,30.16,NE,45,10.7,13.8,49,0.00,,,0.00,Rainwise IP-100,2013-03-08 20:30:00,
2013-03-08 15:35:00,70.6,51.0,30.16,ENE,67,4.2,13.8,50,0.00,,,0.00,Rainwise IP-100,2013-03-08 20:35:00,
2013-03-08 15:40:00,70.3,51.0,30.16,NE,45,7.7,12.8,50,0.00,,,0.00,Rainwise IP-100,2013-03-08 20:40:00,
2013-03-08 15:45:00,70.1,50.5,30.16,ENE,67,4.9,16.1,50,0.00,,,0.00,Rainwise IP-100,2013-03-08 20:45:00,
2013-03-08 15:51:00,70.6,51.0,30.16,NE,45,9.8,9.8,50,0.00,,,0.00,Rainwise IP-100,2013-03-08 20:51:00,
2013-03-08 15:56:00,71.2,52.0,30.16,NNE,22,9.8,14.7,50,0.00,,,0.00,Rainwise IP-100,2013-03-08 20:56:00,
2013-03-08 16:01:00,70.9,50.5,30.16,NNE,22,8.6,11.4,49,0.00,,,0.00,Rainwise IP-100,2013-03-08 21:01:00,
2013-03-08 16:06:00,71.0,51.0,30.16,North,360,7.2,12.4,50,0.00,,,0.00,Rainwise IP-100,2013-03-08 21:06:00,
2013-03-08 16:11:00,71.3,51.0,30.16,ENE,67,7.0,11.7,49,0.00,,,0.00,Rainwise IP-100,2013-03-08 21:11:00,
2013-03-08 16:16:00,70.9,50.5,30.16,NNE,22,9.1,12.4,49,0.00,,,0.00,Rainwise IP-100,2013-03-08 21:16:00,
2013-03-08 16:21:00,70.7,51.0,30.16,NE,45,8.2,11.0,51,0.00,,,0.00,Rainwise IP-100,2013-03-08 21:21:00,
2013-03-08 16:27:00,70.7,52.0,30.16,NNE,22,8.9,11.7,52,0.00,,,0.00,Rainwise IP-100,2013-03-08 21:27:00,
2013-03-08 16:32:00,70.5,52.0,30.16,ENE,67,11.2,14.5,52,0.00,,,0.00,Rainwise IP-100,2013-03-08 21:32:00,
2013-03-08 16:37:00,70.3,52.0,30.16,ENE,67,8.6,11.9,52,0.00,,,0.00,Rainwise IP-100,2013-03-08 21:37:00,
2013-03-08 16:42:00,70.2,51.0,30.17,NNE,22,6.5,13.1,52,0.00,,,0.00,Rainwise IP-100,2013-03-08 21:42:00,
2013-03-08 16:47:00,70.1,52.0,30.17,NNW,337,6.3,12.6,53,0.00,,,0.00,Rainwise IP-100,2013-03-08 21:47:00,
2013-03-08 16:52:00,70.1,52.0,30.17,ENE,67,8.6,11.7,53,0.00,,,0.00,Rainwise IP-100,2013-03-08 21:52:00,
2013-03-08 16:57:00,70.0,52.0,30.17,NNE,22,7.0,14.5,53,0.00,,,0.00,Rainwise IP-100,2013-03-08 21:57:00,
2013-03-08 17:02:00,70.1,52.0,30.17,NNE,22,7.2,11.4,53,0.00,,,0.00,Rainwise IP-100,2013-03-08 22:02:00,
2013-03-08 17:08:00,70.4,52.0,30.17,NNW,337,5.6,9.8,52,0.00,,,0.00,Rainwise IP-100,2013-03-08 22:08:00,
2013-03-08 17:13:00,70.5,52.0,30.17,NE,45,5.1,9.8,52,0.00,,,0.00,Rainwise IP-100,2013-03-08 22:13:00,
2013-03-08 17:18:00,70.5,52.0,30.18,NE,45,4.0,12.8,52,0.00,,,0.00,Rainwise IP-100,2013-03-08 22:18:00,
2013-03-08 17:23:00,70.2,53.0,30.17,NE,45,5.6,8.9,54,0.00,,,0.00,Rainwise IP-100,2013-03-08 22:23:00,
2013-03-08 17:28:00,70.0,53.0,30.18,NNE,22,6.5,9.8,54,0.00,,,0.00,Rainwise IP-100,2013-03-08 22:28:00,
2013-03-08 17:33:00,69.7,53.0,30.18,ENE,67,8.2,14.2,55,0.00,,,0.00,Rainwise IP-100,2013-03-08 22:33:00,
2013-03-08 17:38:00,69.7,53.5,30.18,NNE,22,3.5,10.7,56,0.00,,,0.00,Rainwise IP-100,2013-03-08 22:38:00,
2013-03-08 17:44:00,69.8,53.0,30.18,NNW,337,7.0,9.3,55,0.00,,,0.00,Rainwise IP-100,2013-03-08 22:44:00,
2013-03-08 17:49:00,69.6,52.0,30.18,NE,45,5.8,10.3,54,0.00,,,0.00,Rainwise IP-100,2013-03-08 22:49:00,
2013-03-08 17:54:00,69.4,53.0,30.18,NNE,22,5.1,8.4,56,0.00,,,0.00,Rainwise IP-100,2013-03-08 22:54:00,
2013-03-08 17:59:00,69.3,53.0,30.18,ENE,67,9.3,10.0,56,0.00,,,0.00,Rainwise IP-100,2013-03-08 22:59:00,
2013-03-08 18:04:00,69.1,53.0,30.18,NNE,22,3.3,9.3,56,0.00,,,0.00,Rainwise IP-100,2013-03-08 23:04:00,
2013-03-08 18:09:00,68.9,53.0,30.19,NNE,22,4.2,9.1,57,0.00,,,0.00,Rainwise IP-100,2013-03-08 23:09:00,
2013-03-08 18:14:00,68.8,53.5,30.19,NNE,22,4.9,8.9,58,0.00,,,0.00,Rainwise IP-100,2013-03-08 23:14:00,
2013-03-08 18:19:00,68.5,53.5,30.19,NNE,22,6.1,10.3,58,0.00,,,0.00,Rainwise IP-100,2013-03-08 23:19:00,
2013-03-08 18:25:00,68.3,53.5,30.19,NE,45,6.1,9.3,58,0.00,,,0.00,Rainwise IP-100,2013-03-08 23:25:00,
2013-03-08 18:30:00,68.2,53.5,30.19,NNE,22,4.4,9.1,59,0.00,,,0.00,Rainwise IP-100,2013-03-08 23:30:00,
2013-03-08 18:35:00,68.0,53.5,30.19,NE,45,5.1,8.4,60,0.00,,,0.00,Rainwise IP-100,2013-03-08 23:35:00,
2013-03-08 18:40:00,68.0,54.0,30.19,NNE,22,4.2,9.3,61,0.00,,,0.00,Rainwise IP-100,2013-03-08 23:40:00,
2013-03-08 18:45:00,68.0,53.5,30.19,North,360,5.8,8.6,60,0.00,,,0.00,Rainwise IP-100,2013-03-08 23:45:00,
2013-03-08 18:50:00,67.9,53.5,30.19,NNW,337,4.4,10.5,60,0.00,,,0.00,Rainwise IP-100,2013-03-08 23:50:00,
2013-03-08 18:55:00,67.9,53.5,30.19,NNW,337,6.8,10.5,59,0.00,,,0.00,Rainwise IP-100,2013-03-08 23:55:00,
2013-03-08 19:01:00,68.0,53.0,30.20,North,360,8.9,9.8,58,0.00,,,0.00,Rainwise IP-100,2013-03-09 00:01:00,
2013-03-08 19:06:00,67.9,53.0,30.20,NNW,337,4.0,10.0,58,0.00,,,0.00,Rainwise IP-100,2013-03-09 00:06:00,
2013-03-08 19:11:00,67.9,53.5,30.20,NNE,22,5.1,7.7,59,0.00,,,0.00,Rainwise IP-100,2013-03-09 00:11:00,
2013-03-08 19:16:00,68.0,53.5,30.20,NE,45,7.9,9.1,59,0.00,,,0.00,Rainwise IP-100,2013-03-09 00:16:00,
2013-03-08 19:21:00,68.0,53.5,30.20,NE,45,6.8,8.6,59,0.00,,,0.00,Rainwise IP-100,2013-03-09 00:21:00,
2013-03-08 19:26:00,68.0,53.5,30.20,NNW,337,4.0,8.6,59,0.00,,,0.00,Rainwise IP-100,2013-03-09 00:26:00,
2013-03-08 19:31:00,67.9,53.5,30.21,NNW,337,2.6,7.5,59,0.00,,,0.00,Rainwise IP-100,2013-03-09 00:31:00,
2013-03-08 19:36:00,67.7,53.5,30.21,NNW,337,1.4,5.1,60,0.00,,,0.00,Rainwise IP-100,2013-03-09 00:36:00,
2013-03-08 19:42:00,67.4,53.5,30.21,North,360,6.5,6.5,60,0.00,,,0.00,Rainwise IP-100,2013-03-09 00:42:00,
2013-03-08 19:47:00,67.3,53.5,30.21,NNE,22,4.7,6.5,61,0.00,,,0.00,Rainwise IP-100,2013-03-09 00:47:00,
2013-03-08 19:52:00,67.3,53.5,30.21,NNW,337,4.4,6.5,60,0.00,,,0.00,Rainwise IP-100,2013-03-09 00:52:00,
2013-03-08 19:57:00,67.1,53.0,30.21,NNE,22,4.7,5.1,60,0.00,,,0.00,Rainwise IP-100,2013-03-09 00:57:00,
2013-03-08 20:02:00,67.1,53.0,30.21,NNE,22,3.0,7.9,60,0.00,,,0.00,Rainwise IP-100,2013-03-09 01:02:00,
2013-03-08 20:07:00,67.0,53.5,30.21,NNE,22,3.5,8.9,61,0.00,,,0.00,Rainwise IP-100,2013-03-09 01:07:00,
2013-03-08 20:12:00,67.3,53.5,30.21,NNE,22,2.8,7.5,61,0.00,,,0.00,Rainwise IP-100,2013-03-09 01:12:00,
2013-03-08 20:18:00,67.3,53.5,30.21,NNW,337,4.7,10.0,61,0.00,,,0.00,Rainwise IP-100,2013-03-09 01:18:00,
2013-03-08 20:23:00,67.4,53.5,30.21,NNW,337,4.0,10.7,61,0.00,,,0.00,Rainwise IP-100,2013-03-09 01:23:00,
2013-03-08 20:28:00,67.3,53.5,30.21,NNE,22,8.6,10.3,61,0.00,,,0.00,Rainwise IP-100,2013-03-09 01:28:00,
2013-03-08 20:33:00,67.4,53.5,30.21,North,360,6.5,8.9,61,0.00,,,0.00,Rainwise IP-100,2013-03-09 01:33:00,
2013-03-08 20:38:00,67.5,53.5,30.22,NNE,22,6.3,11.9,61,0.00,,,0.00,Rainwise IP-100,2013-03-09 01:38:00,
2013-03-08 20:43:00,67.6,53.5,30.22,North,360,4.2,10.3,60,0.00,,,0.00,Rainwise IP-100,2013-03-09 01:43:00,
2013-03-08 20:48:00,67.7,53.5,30.22,NNE,22,8.2,10.3,60,0.00,,,0.00,Rainwise IP-100,2013-03-09 01:48:00,
2013-03-08 20:53:00,67.7,53.5,30.22,NNW,337,6.3,10.0,61,0.00,,,0.00,Rainwise IP-100,2013-03-09 01:53:00,
2013-03-08 20:59:00,67.5,53.5,30.23,NNW,337,4.0,8.9,61,0.00,,,0.00,Rainwise IP-100,2013-03-09 01:59:00,
2013-03-08 21:04:00,66.8,53.5,30.23,NNW,337,2.6,4.9,62,0.00,,,0.00,Rainwise IP-100,2013-03-09 02:04:00,
2013-03-08 21:09:00,65.9,53.0,30.22,NW,315,2.3,4.2,63,0.00,,,0.00,Rainwise IP-100,2013-03-09 02:09:00,
2013-03-08 21:14:00,65.3,53.5,30.22,NNW,337,2.8,4.7,65,0.00,,,0.00,Rainwise IP-100,2013-03-09 02:14:00,
2013-03-08 21:19:00,64.7,53.0,30.23,NNW,337,3.3,4.7,66,0.00,,,0.00,Rainwise IP-100,2013-03-09 02:19:00,
2013-03-08 21:24:00,64.4,53.5,30.23,NNW,337,2.6,5.8,67,0.00,,,0.00,Rainwise IP-100,2013-03-09 02:24:00,
2013-03-08 21:29:00,64.1,53.5,30.23,NNW,337,2.8,5.4,68,0.00,,,0.00,Rainwise IP-100,2013-03-09 02:29:00,
2013-03-08 21:35:00,64.0,53.5,30.23,NNW,337,3.0,5.6,68,0.00,,,0.00,Rainwise IP-100,2013-03-09 02:35:00,
2013-03-08 21:40:00,63.8,53.5,30.23,NNW,337,2.8,4.7,68,0.00,,,0.00,Rainwise IP-100,2013-03-09 02:40:00,
2013-03-08 21:45:00,63.6,53.0,30.23,NNW,337,1.2,3.5,68,0.00,,,0.00,Rainwise IP-100,2013-03-09 02:45:00,
2013-03-08 21:50:00,63.4,53.5,30.23,NNW,337,1.9,2.6,69,0.00,,,0.00,Rainwise IP-100,2013-03-09 02:50:00,
2013-03-08 21:55:00,63.1,53.0,30.23,NNW,337,2.1,3.0,69,0.00,,,0.00,Rainwise IP-100,2013-03-09 02:55:00,
2013-03-08 22:00:00,62.9,53.5,30.23,NNW,337,1.9,4.0,70,0.00,,,0.00,Rainwise IP-100,2013-03-09 03:00:00,
2013-03-08 22:05:00,62.7,53.0,30.23,NNW,337,2.6,4.0,70,0.00,,,0.00,Rainwise IP-100,2013-03-09 03:05:00,
2013-03-08 22:10:00,62.6,53.0,30.23,NNW,337,2.6,4.9,71,0.00,,,0.00,Rainwise IP-100,2013-03-09 03:10:00,
2013-03-08 22:16:00,62.5,53.0,30.23,NNW,337,3.3,4.4,71,0.00,,,0.00,Rainwise IP-100,2013-03-09 03:16:00,
2013-03-08 22:21:00,62.3,53.0,30.23,NNW,337,3.5,4.0,71,0.00,,,0.00,Rainwise IP-100,2013-03-09 03:21:00,
2013-03-08 22:26:00,62.2,53.0,30.23,NNW,337,2.6,4.7,71,0.00,,,0.00,Rainwise IP-100,2013-03-09 03:26:00,
2013-03-08 22:31:00,62.1,53.0,30.23,NNW,337,2.6,4.7,71,0.00,,,0.00,Rainwise IP-100,2013-03-09 03:31:00,
2013-03-08 22:36:00,62.1,53.0,30.23,NNW,337,2.1,4.2,71,0.00,,,0.00,Rainwise IP-100,2013-03-09 03:36:00,
2013-03-08 22:41:00,62.0,53.0,30.23,NNW,337,2.1,4.2,71,0.00,,,0.00,Rainwise IP-100,2013-03-09 03:41:00,
2013-03-08 22:46:00,61.8,53.0,30.23,NNW,337,3.7,5.8,71,0.00,,,0.00,Rainwise IP-100,2013-03-09 03:46:00,
2013-03-08 22:52:00,61.8,53.0,30.23,NNW,337,3.3,5.8,71,0.00,,,0.00,Rainwise IP-100,2013-03-09 03:52:00,
2013-03-08 22:57:00,61.7,52.0,30.22,NNW,337,2.8,5.6,70,0.00,,,0.00,Rainwise IP-100,2013-03-09 03:57:00,
2013-03-08 23:02:00,61.7,52.0,30.22,NNW,337,3.5,6.3,70,0.00,,,0.00,Rainwise IP-100,2013-03-09 04:02:00,
2013-03-08 23:07:00,61.7,52.0,30.23,NNW,337,3.3,5.1,70,0.00,,,0.00,Rainwise IP-100,2013-03-09 04:07:00,
2013-03-08 23:12:00,61.6,52.0,30.23,NNW,337,2.8,4.0,70,0.00,,,0.00,Rainwise IP-100,2013-03-09 04:12:00,
2013-03-08 23:17:00,61.4,51.0,30.23,NNW,337,4.2,5.1,69,0.00,,,0.00,Rainwise IP-100,2013-03-09 04:17:00,
2013-03-08 23:22:00,61.4,51.0,30.22,NW,315,2.1,5.6,69,0.00,,,0.00,Rainwise IP-100,2013-03-09 04:22:00,
2013-03-08 23:27:00,61.3,51.0,30.22,NW,315,1.6,3.0,69,0.00,,,0.00,Rainwise IP-100,2013-03-09 04:27:00,
2013-03-08 23:33:00,61.1,50.5,30.22,NNW,337,3.0,3.5,68,0.00,,,0.00,Rainwise IP-100,2013-03-09 04:33:00,
2013-03-08 23:38:00,60.9,50.5,30.21,NNW,337,2.1,4.0,68,0.00,,,0.00,Rainwise IP-100,2013-03-09 04:38:00,
2013-03-08 23:43:00,60.8,50.5,30.21,NNW,337,2.8,5.1,68,0.00,,,0.00,Rainwise IP-100,2013-03-09 04:43:00,
2013-03-08 23:48:00,60.8,50.5,30.21,NNW,337,3.5,4.0,68,0.00,,,0.00,Rainwise IP-100,2013-03-09 04:48:00,
2013-03-08 23:53:00,60.8,50.5,30.21,NNW,337,2.3,5.4,68,0.00,,,0.00,Rainwise IP-100,2013-03-09 04:53:00,
2013-03-08 23:58:00,60.8,50.5,30.21,NNW,337,3.0,4.2,68,0.00,,,0.00,Rainwise IP-100,2013-03-09 04:58:00,